Location: Bronnegerveen
(52.9548°N, 6.8388°E)
Time: 01:22:49
(UTC+00:00)

Timation 2 Rocket - Pass Details

Date: 15 June 2025
Orbit: 905 x 1073 km, 70.0° (Epoch: 07 July)

Event Time Altitude Azimuth Distance (km) Brightness Sun altitude
Exits shadow 01:53:45 - 227° (SW) 2,717 5.7 -7.8°
Reaches altitude 10° 01:54:06 10° 227° (SW) 2,590 5.6 -7.8°
Maximum altitude 02:00:00 63° 309° (NW) 1,011 4.2 -7.3°
Drops below altitude 10° 02:05:59 10° 30° (NNE) 2,616 8.1 -6.8°
Sets 02:08:33 0° 34° (NE) 3,575 9.8 -6.6°
